User: anonymous   Login
Location: Gungolding
(48.9246°N, 11.3502°E)
Time: 02:29:02
(UTC+02:00)
Language:

A-11 Canister half - Orbit

View from above orbital plane
View from above orbital plane
View from above satellite
View from above satellite

Ground track
Ground track

The orbit data is extracted from the following two-line orbital elements,

1    51U 60009C   20095.07404914 -.00000067 +00000-0 +16226-3 0  9990
2    51 047.2123 217.5307 0104458 301.3478 057.7122 12.18271979655029
Epoch (UTC): 04 April 2020 01:46:37
Eccentricity: 0.0104458
inclination: 47.2123°
perigee height: 1517 km
apogee height: 1683 km
right ascension of ascending node: 217.5307°
argument of perigee: 301.3478°
revolutions per day: 12.18271979
mean anomaly at epoch: 57.7122°
orbit number at epoch: 65502

The dashed part of the orbit path shows where the satellite is in the earth's shadow,  

DLR